FW7601 Weather Reports


time (UTC)temp
C
wind
direction
speed
KPH
gust
KPH
rain 1hr
cm
rain 24hr
cm
rain mn
cm
humidity
%
barometer
mb
20260508151922 13 0 1.6 3.2 0.00 0.00 0.00 40 1010.4
20260508150922 13 225 6.4 14.5 0.00 0.00 0.00 40 1010.7
20260508145922 13 0.0 0.0 0.00 0.00 0.00 41 1010.7
20260508145032 12 158 4.8 6.4 0.00 0.00 0.00 40 1010.6
20260508143922 12 203 3.2 4.8 0.00 0.00 0.00 43 1010.8
20260508142922 12 0.0 3.2 0.00 0.00 0.00 48 1010.7
20260508141920 12 203 1.6 4.8 0.00 0.00 0.00 52 1010.9
20260508140922 11 0.0 0.0 0.00 0.00 0.00 54 1010.9
20260508135921 11 225 1.6 4.8 0.00 0.00 0.00 59 1010.9
20260508134923 10 0.0 0.0 0.00 0.00 0.00 63 1011.0
20260508133922 10 0.0 0.0 0.00 0.00 0.00 66 1011.0
20260508132922 10 0.0 1.6 0.00 0.00 0.00 68 1011.0
20260508131922 9 0.0 0.0 0.00 0.00 0.00 68 1011.2
20260508130922 8 0.0 0.0 0.00 0.00 0.00 68 1011.3
20260508125921 8 0.0 0.0 0.00 0.00 0.00 70 1011.4
20260508124921 7 158 1.6 4.8 0.00 0.00 0.00 71 1011.2
20260508123922 6 0.0 3.2 0.00 0.00 0.00 73 1011.3
20260508122956 6 158 1.6 4.8 0.00 0.00 0.00 76 1011.2
20260508121922 5 158 1.6 4.8 0.00 0.00 0.00 80 1011.1
20260508120921 4 0.0 0.0 0.00 0.00 0.00 91 1011.0
20260508120815 2 0.0 0.0 0.00 0.00 0.00 92 1010.7